Grand Marais, MN

7:50 PM CST on January 18, 2018 (GMT -0600)
Grand Marais

Weather History for KGNA - April, 2014

Change the Weather History Date:

Saturday, April 5, 2014

  Actual Average (KCKC) Record (KCKC)
Temperature  
Mean Temperature 24 °F -  
Max Temperature 35 °F 38 °F 50 °F (1998)
Min Temperature 15 °F 22 °F 1 °F (2007)
Degree Days  
Heating Degree Days 41    
Moisture  
Dew Point 22 °F    
Average Humidity 80    
Maximum Humidity 89    
Minimum Humidity 64    
Precipitation  
Precipitation 0.00 in - - ()
Sea Level Pressure  
Sea Level Pressure 30.02 in    
Wind  
Wind Speed 3 mph (WSW)    
Max Wind Speed 6 mph    
Max Gust Speed -    
Averages and records for this station are not official NWS values.
T = Trace of Precipitation, MM = Missing Value Source: NWS Daily Summary

Daily Weather History Graph

Daily Weather History Graph

Search for Another Location

Airport or City:

Trip Planner

Search our weather history database for the weather conditions in past years. The results will help you decide how hot, cold, wet, or windy it might be!

Date:

Astronomy

Apr. 05, 2014 Rise Set
Actual Time 6:31 AM CDT 7:37 PM CDT
Civil Twilight 6:00 AM CDT 8:08 PM CDT
Nautical Twilight 5:22 AM CDT 8:46 PM CDT
Astronomical Twilight 4:42 AM CDT 9:27 PM CDT
Moon 10:24 AM CDT (4/5) 1:02 AM CDT (4/5)
Length of Visible Light 14h 08m
Length of Day
13h 05m
Waxing Crescent, 34% of the Moon is Illuminated
Apr 5
Waxing Crescent
Apr 7
First Quarter
Apr 15
Full
Apr 22
Last Quarter
Apr 29
New

Hourly Weather History & Observations

Time (CDT) Temp. Windchill Dew Point Humidity Pressure Visibility Wind Dir Wind Speed Gust Speed Precip Events Conditions
12:56 AM 23.0 °F 18.4 °F 17.1 °F 78% 30.00 in - NNW 3.5 mph - N/A   Unknown
1:56 AM 19.9 °F - 15.1 °F 81% 30.02 in - Calm Calm - N/A   Unknown
2:56 AM 19.0 °F 12.3 °F 14.0 °F 81% 30.04 in - NW 4.6 mph - N/A   Unknown
3:56 AM 17.1 °F 10.0 °F 12.9 °F 84% 30.04 in - NNW 4.6 mph - N/A   Unknown
4:56 AM 17.1 °F 11.7 °F 12.9 °F 84% 30.05 in - NW 3.5 mph - N/A   Unknown
5:56 AM 15.1 °F 9.4 °F 12.0 °F 88% 30.08 in - NW 3.5 mph - N/A   Unknown
6:56 AM 15.1 °F 7.7 °F 10.9 °F 84% 30.08 in - NNW 4.6 mph - N/A   Unknown
7:56 AM 23.0 °F - 15.1 °F 72% 30.09 in - Calm Calm - N/A   Unknown
8:56 AM 30.0 °F 26.5 °F 21.0 °F 69% 30.09 in - SW 3.5 mph - N/A   Unknown
9:56 AM 30.9 °F - 21.0 °F 67% 30.09 in - Calm Calm - N/A   Unknown
10:56 AM 33.1 °F - 21.9 °F 64% 30.07 in - Calm Calm - N/A   Unknown
11:56 AM 33.1 °F - 24.1 °F 70% 30.07 in - Calm Calm - N/A   Unknown
12:56 PM 30.9 °F 26.2 °F 26.1 °F 82% 30.07 in - SSW 4.6 mph - N/A   Unknown
1:56 PM 32.0 °F 27.5 °F 26.1 °F 79% 30.05 in - SW 4.6 mph - N/A   Unknown
2:56 PM 30.9 °F 26.2 °F 27.0 °F 85% 30.03 in - SW 4.6 mph - N/A   Unknown
3:56 PM 32.0 °F 26.4 °F 27.0 °F 82% 30.00 in - South 5.8 mph - N/A   Unknown
4:56 PM 33.1 °F 28.7 °F 28.0 °F 82% 29.99 in - SSW 4.6 mph - N/A   Unknown
5:56 PM 32.0 °F 28.7 °F 28.0 °F 85% 29.97 in - SSW 3.5 mph - N/A   Unknown
6:56 PM 32.0 °F - 27.0 °F 82% 29.96 in - Calm Calm - N/A   Unknown
7:56 PM 30.0 °F - 25.0 °F 82% 29.95 in - Calm Calm - N/A   Unknown
8:56 PM 30.0 °F 26.5 °F 26.1 °F 85% 29.95 in - West 3.5 mph - N/A   Unknown
9:56 PM 32.0 °F 27.5 °F 27.0 °F 82% 29.94 in - WSW 4.6 mph - N/A   Unknown
10:56 PM 30.9 °F 26.2 °F 27.0 °F 85% 29.95 in - WSW 4.6 mph - N/A   Unknown
11:56 PM 33.1 °F 27.7 °F 30.0 °F 89% 29.94 in - SSW 5.8 mph - N/A   Unknown